Terminal Aerodrome Forecast
Issued by NWS

Home | Current Version | Previous Version | Text Only | Print | Product List | Glossary On
Versions: 1 2 3 4 5 6 7 8 9 10 11 12 13 14 15 16 17 18 19 20 21 22 23 24 25
000
FTUS44 KMAF 190700 AAA
TAFHOB
TAF AMD
KHOB 190710Z 1907/2006 12010KT 3SM -SHRA BR OVC003
      TEMPO 1910/1914 TSRA OVC002CB
     FM191400 12010KT P6SM OVC015
      TEMPO 1914/1918 3SM TSRA BR OVC005CB
     FM191800 13012KT P6SM OVC020
      TEMPO 1918/1922 3SM TSRA BR OVC010CB=

USA.gov is the U.S. government's official web portal to all federal, state and local government web resources and services.